Torna al catalogo

DELTA 1 R/B

AttivoHEO
NORAD 4251·ROCKET BODY·🇺🇸 United States

Lanciato Nov 22, 1969 da Cape Canaveral Space Force Station

Loading…

Prossimi Passaggi (prossime 24 ore)

TLE

AggiornatoSource: Space-Track

Epoca: Sep 14, 2026, 09:19 UTC

1 04251U 69101B   26257.38840568  .00000509  00000-0  43695-3 0  9997
2 04251  27.8979 304.5378 5531038 169.0115 211.3815  4.64992652683324

Traccia DELTA 1 R/B in tempo reale con AllMySat

Download on the App Store